Location: Unspecified
(0.0000°N, 0.0000°E)
Time: 19:12:17
(UTC+00:00)

Tiros 1 - Pass Details

Date: 21 November 2019
Orbit: 630 x 664 km, 48.4° (Epoch: 08 December)

Event Time Altitude Azimuth Distance (km) Brightness Sun altitude
Rises 10:53:11 0° 236° (SW) 2,941 10.6 66.3°
Reaches altitude 10° 10:55:43 10° 246° (WSW) 2,024 9.8 66.6°
Maximum altitude 10:59:52 32° 309° (NW) 1,092 8.5 67.1°
Drops below altitude 10° 11:03:58 10° 12° (NNE) 2,001 9.6 67.6°
Sets 11:06:28 0° 22° (NNE) 2,903 10.3 67.9°
